Date String (YYYY-MM-DD hh:mm:ss) UTC,Instrument flags,Ambient pressure (hPa),Sample flow (lpm),Bypass flow (lpm),Sample temperature (°C),Ambient temperature (°C),ASC tube jacket temperature (°C),LED temperature (°C),Box temperature (°C),Sample RH (%),Span deviation,Mass concentration (μg/m³),Mass concentration (μg/m³),Mass concentration (μg/m³)
DateTimeUTC,F1_M11,P_M11,Q1_M11,Q2_M11,T1_M11,T2_M11,T3_M11,T4_M11,T5_M11,U1_M11,ZSPAN_M11,X0_M11,X2_M11,X1_M11
2022-02-16 08:00:00,,0816.4,4.99,0.00,25.8,24.8,00.0,34.9,27.6,11.7,0000.0,0011.61,0003.71,0002.30
2022-02-16 08:01:00,,0816.4,4.99,0.00,25.8,24.8,00.0,34.9,27.6,11.7,0000.0,0011.73,0003.65,0002.29
2022-02-16 08:02:00,,0816.4,5.01,0.00,25.8,24.8,00.0,34.9,27.6,11.7,0000.0,0011.67,0003.68,0002.28
2022-02-16 08:03:00,,0816.4,4.99,0.00,25.8,24.8,00.0,34.9,27.6,11.7,0000.0,0012.31,0003.66,0002.30
2022-02-16 08:04:00,,0816.4,5.01,0.00,25.8,24.8,00.0,34.9,27.6,11.7,0000.0,0012.23,0003.63,0002.29
2022-02-16 08:05:00,,0816.4,5.00,0.00,25.8,24.8,00.0,34.9,27.6,11.7,0000.0,0012.79,0003.63,0002.29
2022-02-16 08:06:00,,0816.4,5.00,0.00,25.8,24.8,00.0,34.8,27.6,11.7,0000.0,0012.54,0003.59,0002.27
2022-02-16 08:07:00,,0816.4,5.01,0.00,25.8,24.8,00.0,34.8,27.6,11.7,0000.0,0012.40,0003.59,0002.27
2022-02-16 08:08:00,,0816.3,4.98,0.00,25.8,24.9,00.0,34.8,27.6,11.7,0000.0,0012.64,0003.62,0002.28
2022-02-16 08:09:00,,0816.2,5.02,0.00,25.8,24.8,00.0,34.8,27.6,11.7,0000.0,0012.80,0003.64,0002.28
2022-02-16 08:10:00,,0816.2,4.99,0.00,25.8,24.8,00.0,34.8,27.6,11.7,0000.0,0013.32,0003.63,0002.30
2022-02-16 08:11:00,,0816.2,4.99,0.00,25.8,24.8,00.0,34.8,27.6,11.7,0000.0,0013.85,0003.67,0002.29
2022-02-16 08:12:00,,0816.2,5.02,0.00,25.8,24.8,00.0,34.8,27.6,11.8,0000.0,0013.55,0003.74,0002.28
2022-02-16 08:13:00,,0816.2,5.00,0.00,25.8,24.8,00.0,34.8,27.5,11.8,0000.0,0013.80,0003.74,0002.30
2022-02-16 08:14:00,,0816.3,4.98,0.00,25.7,24.8,00.0,34.8,27.5,11.8,0000.0,0012.75,0003.73,0002.29
2022-02-16 08:15:00,,0816.3,5.01,0.00,25.7,24.8,00.0,34.8,27.5,11.8,0000.0,0012.91,0003.75,0002.29
2022-02-16 08:16:00,,0816.4,5.01,0.00,25.7,24.7,00.0,34.8,27.5,11.8,0000.0,0012.71,0003.77,0002.32
2022-02-16 08:17:00,,0816.4,4.99,0.00,25.7,24.7,00.0,34.7,27.5,11.9,0000.0,0012.26,0003.73,0002.33
2022-02-16 08:18:00,,0816.5,5.02,0.00,25.7,24.7,00.0,34.7,27.5,11.9,0000.0,0012.38,0003.69,0002.33
2022-02-16 08:19:00,,0816.5,5.00,0.00,25.7,24.6,00.0,34.7,27.4,11.9,0000.0,0012.49,0003.67,0002.34
2022-02-16 08:20:00,,0816.5,4.99,0.00,25.6,24.5,00.0,34.7,27.4,11.9,0000.0,0012.86,0003.64,0002.33
2022-02-16 08:21:00,,0816.5,5.02,0.00,25.6,24.4,00.0,34.7,27.3,11.9,0000.0,0012.64,0003.61,0002.34
2022-02-16 08:22:00,,0816.4,5.00,0.00,25.6,24.4,00.0,34.6,27.3,12.0,0000.0,0012.37,0003.57,0002.35
2022-02-16 08:23:00,,0816.4,5.00,0.00,25.5,24.3,00.0,34.6,27.2,12.0,0000.0,0012.97,0003.58,0002.39
2022-02-16 08:24:00,,0816.4,5.00,0.00,25.5,24.2,00.0,34.6,27.2,12.0,0000.0,0013.04,0003.58,0002.39
2022-02-16 08:25:00,,0816.5,4.98,0.00,25.5,24.2,00.0,34.6,27.2,12.1,0000.0,0013.61,0003.60,0002.39
2022-02-16 08:26:00,,0816.5,5.01,0.00,25.4,24.3,00.0,34.5,27.2,12.1,0000.0,0013.40,0003.60,0002.38
2022-02-16 08:27:00,,0816.5,5.00,0.00,25.4,24.3,00.0,34.5,27.2,12.1,0000.0,0013.13,0003.58,0002.36
2022-02-16 08:28:00,,0816.4,5.00,0.00,25.4,24.3,00.0,34.5,27.1,12.1,0000.0,0012.65,0003.60,0002.35
2022-02-16 08:29:00,,0816.5,5.02,0.00,25.4,24.3,00.0,34.5,27.1,12.2,0000.0,0012.82,0003.64,0002.34
2022-02-16 08:30:00,,0816.4,4.99,0.00,25.3,24.4,00.0,34.5,27.1,12.2,0000.0,0012.65,0003.65,0002.33
2022-02-16 08:31:00,,0816.5,5.02,0.00,25.3,24.4,00.0,34.4,27.1,12.2,0000.0,0012.37,0003.68,0002.33
2022-02-16 08:32:00,,0816.5,4.99,0.00,25.3,24.4,00.0,34.4,27.1,12.2,0000.0,0012.26,0003.66,0002.31
2022-02-16 08:33:00,,0816.5,4.99,0.00,25.3,24.3,00.0,34.4,27.1,12.2,0000.0,0011.98,0003.66,0002.28
2022-02-16 08:34:00,,0816.5,5.01,0.00,25.3,24.4,00.0,34.4,27.1,12.2,0000.0,0011.48,0003.67,0002.28
2022-02-16 08:35:00,,0816.5,4.99,0.00,25.3,24.4,00.0,34.4,27.1,12.2,0000.0,0011.16,0003.65,0002.28
2022-02-16 08:36:00,,0816.5,5.00,0.00,25.3,24.4,00.0,34.4,27.1,12.2,0000.0,0011.73,0003.62,0002.28
2022-02-16 08:37:00,,0816.5,5.01,0.00,25.3,24.4,00.0,34.4,27.1,12.2,0000.0,0011.45,0003.60,0002.29
2022-02-16 08:38:00,,0816.5,5.00,0.00,25.3,24.4,00.0,34.4,27.1,12.2,0000.0,0011.57,0003.58,0002.32
2022-02-16 08:39:00,,0816.4,4.99,0.00,25.3,24.4,00.0,34.4,27.1,12.2,0000.0,0011.80,0003.56,0002.33
2022-02-16 08:40:00,,0816.5,5.01,0.00,25.3,24.4,00.0,34.3,27.1,12.2,0000.0,0012.40,0003.54,0002.35
2022-02-16 08:41:00,,0816.5,4.99,0.00,25.3,24.4,00.0,34.3,27.1,12.2,0000.0,0012.65,0003.53,0002.35
2022-02-16 08:42:00,,0816.6,5.01,0.00,25.3,24.4,00.0,34.3,27.1,12.2,0000.0,0012.44,0003.50,0002.37
2022-02-16 08:43:00,,0816.4,5.00,0.00,25.3,24.4,00.0,34.3,27.0,12.2,0000.0,0012.63,0003.51,0002.38
2022-02-16 08:44:00,,0816.5,4.99,0.00,25.3,24.3,00.0,34.3,27.0,12.2,0000.0,0012.26,0003.55,0002.41
2022-02-16 08:45:00,,0816.5,5.00,0.00,25.2,24.3,00.0,34.3,27.0,12.2,0000.0,0012.08,0003.55,0002.44
2022-02-16 08:46:00,,0816.4,5.02,0.00,25.2,24.3,00.0,34.3,27.0,12.3,0000.0,0012.28,0003.56,0002.45
2022-02-16 08:47:00,,0816.5,4.98,0.00,25.2,24.3,00.0,34.3,26.9,12.3,0000.0,0011.43,0003.58,0002.47
2022-02-16 08:48:00,,0816.6,5.01,0.00,25.2,24.2,00.0,34.3,26.9,12.3,0000.0,0011.43,0003.64,0002.50
2022-02-16 08:49:00,,0816.4,5.01,0.00,25.1,24.2,00.0,34.2,26.9,12.4,0000.0,0011.68,0003.65,0002.51
2022-02-16 08:50:00,,0816.4,4.99,0.00,25.1,24.2,00.0,34.2,26.9,12.4,0000.0,0011.69,0003.67,0002.53
2022-02-16 08:51:00,,0816.4,5.00,0.00,25.1,24.1,00.0,34.2,26.9,12.4,0000.0,0011.08,0003.69,0002.55
2022-02-16 08:52:00,,0816.4,5.00,0.00,25.1,24.1,00.0,34.2,26.9,12.4,0000.0,0011.17,0003.72,0002.58
2022-02-16 08:53:00,,0816.4,5.00,0.00,25.1,24.1,00.0,34.2,26.9,12.4,0000.0,0011.37,0003.74,0002.59
2022-02-16 08:54:00,,0816.4,5.01,0.00,25.1,24.1,00.0,34.2,26.9,12.4,0000.0,0011.65,0003.79,0002.61
2022-02-16 08:55:00,,0816.5,4.99,0.00,25.1,24.1,00.0,34.1,26.9,12.4,0000.0,0011.63,0003.77,0002.61
2022-02-16 08:56:00,,0816.5,5.02,0.00,25.1,24.1,00.0,34.1,26.9,12.4,0000.0,0011.93,0003.75,0002.60
2022-02-16 08:57:00,,0816.6,5.00,0.00,25.1,24.1,00.0,34.1,26.9,12.4,0000.0,0012.63,0003.78,0002.61
2022-02-16 08:58:00,,0816.6,4.99,0.00,25.1,24.2,00.0,34.1,26.8,12.4,0000.0,0013.26,0003.79,0002.61
2022-02-16 08:59:00,,0816.9,5.00,0.00,25.1,24.2,00.0,34.1,26.8,12.4,0000.0,0014.55,0003.77,0002.60
